Flag for Mozambique Weather past 2 weeks in Maputo, Mozambique

Now
72 °F

Thunderstorms. Partly cloudy.


Feels Like: 67 °F
Forecast: 67 / 83 °F
Wind: 8 mph from Northeast

Location: Maputo / Mavalane

Current Time: Apr 19, 2015 at 9:28:13 PM

Latest Report: Apr 19, 2015 at 9:00 PM


Visibility: N/A

Pressure: 30.01 "Hg

Humidity: 94%

Dew point: 70 °F

Location of MaputoLocation

Historic Weather in Maputo — Graph

°F

Maputo temperature yesterday

Maximum temperature yesterday: 79 °F (at 12:00 PM)
Minimum temperature yesterday: 66 °F (at 4:00 AM)
Average temperature yesterday: 73 °F

Past Weeks' High & Low Weather Summary

 TemperatureHumidityPressure
High95 °F (Apr 5, 2:00 PM)100% (Apr 14, 6:00 AM)30.24 "Hg (Apr 14, 6:00 AM)
Low-4 °F (Apr 19, 3:00 AM)34% (Apr 5, 2:00 PM)29.68 "Hg (Apr 5, 2:00 PM)
Average74 °F70%30.05 "Hg
* Reported Apr 4 10:00 PM — Apr 19 8:00 PM, Maputo, Weather by CustomWeather, © 2015

Note: Actual official high and low records may vary slightly from our data, if they occured in-between our weather recording intervals... More about our weather records

Advertising

Maputo weather history for previous 24 hours

 ConditionsComfort  
Time TempWeatherWind HumidityBarometerVisibility
8:00 PM
Sun, Apr 19
75 °FThunderstorms. Passing clouds.8 mph83%30.01 "HgN/A
7:00 PM75 °FPassing clouds.9 mph78%30.01 "HgN/A
6:00 PM75 °FPassing clouds.9 mph78%29.98 "HgN/A
5:00 PM77 °FPassing clouds.14 mph74%29.95 "HgN/A
4:00 PM79 °FScattered clouds.12 mph65%29.98 "HgN/A
3:00 PM82 °FPartly sunny.8 mph62%29.98 "HgN/A
2:00 PM81 °FPartly sunny.12 mph58%30.01 "HgN/A
1:00 PM81 °FPartly sunny.6 mph62%30.04 "HgN/A
12:00 PM77 °FPartly sunny.6 mph65%30.07 "HgN/A
11:00 AM86 °FPassing clouds.N/A70%29.98 "HgN/A
10:00 AM75 °FPartly sunny.5 mph65%30.12 "HgN/A
9:00 AM72 °FPartly sunny.5 mph73%30.12 "HgN/A
8:00 AM70 °FPartly sunny.7 mph73%30.12 "HgN/A
7:00 AM68 °FPartly sunny.7 mph78%30.12 "HgN/A
6:00 AM68 °FOvercast.6 mph78%30.09 "HgN/A
5:00 AM68 °FPassing clouds.7 mph73%30.09 "HgN/A
4:00 AM68 °FPassing clouds.8 mph78%30.09 "HgN/A
3:00 AM-4 °FPassing clouds.7 mph100%30.12 "HgN/A
2:00 AM70 °FPassing clouds.9 mph78%30.12 "HgN/A
1:00 AM70 °FPassing clouds.5 mph83%30.15 "HgN/A
12:00 AM73 °FPassing clouds.5 mph74%30.15 "HgN/A
11:00 PM
Sat, Apr 18
73 °FPassing clouds.3 mph74%30.15 "HgN/A
10:00 PM73 °FPassing clouds.3 mph69%30.15 "HgN/A
9:00 PM73 °FPassing clouds.6 mph69%30.15 "HgN/A
Weather by CustomWeather, © 2015

See weather overviewHow to use our weather pages